Location: Kerchicane
(47.7153°N, 3.3394°W)
Time: 06:30:31
(UTC+00:00)

Daily predictions for brighter satellites

Satellite Brightness Start Highest point End
(mag) Time Altitude Azimuth Time Altitude Azimuth Time Altitude Azimuth
ARGOS 3.6 19:48:28 10° S 19:53:48 67° WSW 19:59:10 10° NNW
IRS-1A Rocket 4.5 19:48:38 10° SSE 19:54:22 88° WSW 20:00:15 10° NNW
CZ-2C R/B 2.7 19:49:33 10° NNE 19:54:39 54° E 19:59:47 10° S
NOSS 3-2 (A) 3.6 19:49:44 10° S 19:55:06 46° ESE 20:01:11 10° NE
USA 267 4.5 19:55:02 10° E 19:59:14 18° ESE 20:03:24 10° SSE
SL-16 R/B 3.3 19:55:59 10° NNW 20:01:03 31° NE 20:06:03 10° ESE
SL-4 R/B 2.4 19:57:11 10° W 20:01:16 63° NNW 20:05:02 10° ENE
BREEZE-M DEB (TANK) 1.9 20:00:10 10° WSW 20:02:31 89° NNW 20:07:14 10° ENE
BREEZE-M DEB (TANK) 4.2 19:57:37 10° WNW 20:03:11 25° SW 20:05:55 10° S
MONITOR-E 3.5 20:01:32 10° SSE 20:03:50 57° ENE 20:06:10 10° N
NOSS 3-2 (C) 3.9 20:00:51 10° S 20:05:55 34° ESE 20:11:35 10° NE
Cosmos 1470 Rocket 4.5 20:03:17 10° SSE 20:07:04 29° E 20:10:51 10° NNE
Sich 1 3.1 20:03:18 10° S 20:07:45 89° W 20:12:13 10° N
BREEZE-M DEB (TANK) 2.3 20:06:24 10° W 20:10:10 64° N 20:12:09 10° ENE
Cosmos 2082 Rocket 2.2 20:04:52 10° SSW 20:10:33 82° ESE 20:16:16 10° NNE
MetOp-A 4.2 20:06:03 10° SSE 20:11:24 90° WSW 20:16:48 10° NNW
USA 186 3.1 20:10:42 10° SSW 20:12:39 26° W 20:14:39 10° NW
Meteor 1-4 Rocket 2.4 20:13:51 10° N 20:17:20 87° E 20:20:47 10° S
Cosmos 2322 Rocket 3.2 20:13:15 10° NNW 20:18:26 34° NE 20:23:14 12° ESE
H-2A R/B 3.9 20:15:29 10° SSW 20:19:55 30° W 20:24:18 10° NNW
Cosmos 2278 4.1 20:14:16 10° NNW 20:19:56 66° WSW 20:25:34 10° SSE
Cosmos 1862 Rocket 3.7 20:16:42 10° N 20:21:07 60° ENE 20:25:27 10° SSE
Cosmos 676 Rocket 4.0 20:20:49 10° SSW 20:26:08 80° ESE 20:31:30 10° NNE
Cosmos 2360 Rocket 3.6 20:22:44 10° N 20:27:22 25° NE 20:31:48 11° E
USA 276 2.2 20:24:27 10° WNW 20:27:38 75° NNE 20:30:10 15° E
X-37B 1.1 20:25:13 10° W 20:28:14 44° S 20:30:22 17° ESE
USA 32 4.3 20:23:23 10° SSE 20:28:22 48° E 20:33:23 10° NNE
Terra 3.8 20:28:20 10° E 20:30:47 14° ENE 20:33:15 10° NNE
ATLAS 3B R/B 3.7 20:26:34 10° SSE 20:31:16 21° ESE 20:35:57 10° ENE
IGS 5A 4.4 20:29:39 15° SE 20:32:34 32° ENE 20:36:17 10° N
Cosmos 1238 Rocket 2.9 20:30:32 14° SSE 20:32:36 32° E 20:35:21 10° NNE
Cosmos 468 Rocket 4.2 20:30:04 10° NNW 20:35:22 62° ENE 20:39:43 15° SE
USA 234 4.1 20:30:09 10° E 20:36:19 46° NNE 20:42:29 10° NW
CZ-2C R/B 3.6 20:31:43 10° NNE 20:36:19 76° ESE 20:40:47 10° S
Cosmos 1980 Rocket 2.8 20:31:08 10° NW 20:36:39 55° WSW 20:42:07 10° S
Cosmos 44 3.8 20:31:59 10° NNW 20:36:45 49° NE 20:40:36 16° ESE
Cosmos 1934 Rocket 4.0 20:30:24 10° S 20:36:46 85° E 20:43:10 10° N
Lacrosse 5 1.9 20:32:48 10° NW 20:37:54 83° SW 20:41:50 17° SE
Resurs 01 Rocket 1.6 20:35:01 10° SSE 20:39:25 81° ENE 20:43:54 10° NNW
Cosmos 1602 4.3 20:37:46 12° SSE 20:41:04 39° E 20:44:45 10° NNE
GP-B 3.2 20:40:09 10° N 20:44:34 59° E 20:48:37 12° SSE
Cosmos 1833 Rocket 4.4 20:40:57 10° WSW 20:46:08 37° NW 20:51:23 10° NNE
SPOT 3 Rocket 3.9 20:42:15 10° S 20:47:25 65° WSW 20:52:36 10° NNW
Cosmos 1933 Rocket 3.7 20:43:14 10° S 20:47:31 52° E 20:51:51 10° NNE
Cosmos 1666 Rocket 4.4 20:43:50 10° SSW 20:48:02 51° WNW 20:52:18 10° N
Cosmos 1867 4.4 20:45:20 10° SW 20:50:40 54° NW 20:56:03 10° NNE
Cosmos 405 Rocket 2.6 20:50:09 10° S 20:53:49 65° E 20:57:34 10° NNE
Spot 2 Rocket 3.7 20:51:18 18° SE 20:54:56 57° ENE 20:59:56 10° N
USA 238 DEB 3.8 20:48:51 10° SW 20:55:30 83° NW 21:02:29 10° NE
USA 238 3.8 20:48:57 10° SW 20:55:36 83° NW 21:02:35 10° NE
Meteor 1-20 Rocket 4.3 20:50:36 10° S 20:56:26 84° E 21:02:20 10° NNE
Cosmos 1515 4.0 20:54:08 10° N 20:57:51 47° ENE 20:59:37 26° SE
CENTAUR R/B 2.4 20:52:51 10° SSW 20:58:44 71° SE 21:05:45 10° NE
Okean 1-7 3.3 20:55:31 10° N 20:59:42 48° ENE 21:01:51 25° SE
Cosmos 1741 Rocket 4.0 20:57:03 10° S 21:02:13 62° ESE 21:07:28 10° NNE
Cosmos 1437 Rocket 2.7 21:01:49 10° N 21:05:35 63° ENE 21:07:18 30° SSE
OBJECT-B 3.1 21:04:11 10° SSW 21:06:53 23° W 21:09:36 10° NW
Cosmos 1763 Rocket 3.6 21:04:19 10° NNW 21:09:40 82° WSW 21:13:14 21° SSE
Cosmos 1703 Rocket 3.5 21:05:43 10° N 21:10:04 69° E 21:12:20 27° SSE
H-2A R/B 3.3 21:06:56 10° NNE 21:11:05 78° ESE 21:14:44 13° S
Cosmos 2333 Rocket 3.8 21:07:13 10° N 21:11:51 24° NE 21:15:19 15° E
Cosmos 1570 Rocket 4.2 21:06:48 10° NNW 21:12:06 61° ENE 21:14:57 27° SE
ATLAS 5 CENTAUR R/B 3.1 21:10:09 10° NNW 21:12:28 28° NE 21:14:58 18° E
Cosmos 2084 Rocket 3.3 21:08:43 10° SW 21:12:55 86° SE 21:17:14 10° NE
FAST 4.5 21:12:43 10° N 21:15:19 64° E 21:15:48 51° SE
Landsat 7 3.8 21:15:20 23° SSE 21:18:17 89° WSW 21:23:05 10° NNW
Cosmos 921 Rocket 4.4 21:14:44 10° NW 21:18:31 33° W 21:21:53 12° SSW
SPOT 5 3.2 21:17:38 30° ESE 21:19:12 42° ENE 21:23:25 10° N
USA 245 4.5 21:14:57 18° SSE 21:19:53 87° WSW 21:25:52 10° NNW
Cosmos 2208 Rocket 4.1 21:18:23 10° NNW 21:23:37 63° ENE 21:25:58 32° SE
Okean 1 4.0 21:25:29 10° NNW 21:29:27 52° W 21:31:49 22° SSW
Meteor 1-11 Rocket 4.4 21:31:46 31° ESE 21:33:20 36° E 21:38:35 10° NNE
Meteor 1-19 Rocket 4.4 21:28:19 10° NNW 21:33:42 66° W 21:37:21 21° S
Lacrosse 4 Rocket 2.8 21:37:37 24° ENE 21:37:37 24° ENE 21:39:51 10° NE
SL-27 R/B 2.9 21:37:55 20° SW 21:40:01 56° WNW 21:43:18 10° NNE
Cosmos 2100 Rocket 3.9 21:36:57 26° S 21:40:35 70° E 21:46:43 10° NNE
SL-4 R/B 2.7 21:37:28 10° WNW 21:41:14 45° N 21:42:58 25° ENE
Cosmos 2219 Rocket 3.3 21:36:50 10° NNW 21:41:56 32° NE 21:44:23 23° E
Meteor 2-4 Rocket 3.6 21:36:29 10° NNW 21:42:08 90° WSW 21:44:40 33° S
Cosmos 540 Rocket 3.4 21:37:11 10° NNW 21:42:24 83° WSW 21:44:28 37° SSE
USA 267 3.2 21:36:39 10° ENE 21:43:08 62° SE 21:49:36 10° SW
Cosmos 2173 Rocket 3.9 21:41:11 28° S 21:44:34 70° E 21:50:39 10° NNE
SL-16 R/B 2.7 21:39:55 10° NW 21:45:24 52° WSW 21:48:20 26° S
Cosmos 1242 Rocket 3.8 21:47:56 10° N 21:50:53 30° ENE 21:50:53 30° ENE
SAR-Lupe-2 3.5 21:50:37 10° NNE 21:54:04 72° E 21:54:04 72° E
Cosmos 2322 4.1 21:50:01 10° NNW 21:55:34 52° ENE 21:57:25 37° ESE
NOSS 3-2 (C) 4.2 21:50:46 10° WSW 21:56:30 55° NW 22:03:07 10° NE
Cosmos 1725 Rocket 4.3 21:55:17 38° SE 21:57:12 50° E 22:03:17 10° NNE
Cosmos 1459 Rocket 3.9 21:53:46 27° S 21:57:26 85° E 22:03:51 10° N
ERS-1 Rocket 3.0 21:56:14 39° S 21:58:05 73° WSW 22:03:09 10° NNW
Cosmos 1833 4.2 21:58:11 42° SSE 21:59:49 57° ESE 22:05:23 10° NE
Cosmos 1500 3.5 22:00:27 49° SW 22:01:13 63° W 22:04:56 10° N
Cosmos 2346 Rocket 4.4 21:55:25 10° N 22:01:29 71° E 22:03:31 43° SSE
Meteor 1-13 Rocket 4.1 21:56:06 10° N 22:01:39 83° E 22:03:24 46° SSE
Cosmos 1536 3.4 22:03:04 43° ENE 22:03:04 43° ENE 22:06:19 10° NNE
Cosmos 2322 Rocket 2.9 21:57:13 10° NW 22:02:39 47° WSW 22:05:04 30° SSW
USA 276 4.1 22:00:58 10° W 22:02:32 21° WSW 22:02:32 21° WSW
X-37B 3.3 22:02:12 10° WSW 22:02:37 12° WSW 22:02:37 12° WSW
Cosmos 2016 Rocket 4.0 22:02:20 39° SSE 22:04:48 69° E 22:11:09 10° NNE
Cosmos 2221 Rocket 3.5 22:00:29 10° N 22:04:59 79° E 22:05:37 64° SE
SPOT 1/Viking Rocket 4.4 22:04:10 25° SSW 22:06:48 43° W 22:11:48 10° NNW
Terra 1.7 22:06:49 56° SSE 22:07:50 89° WSW 22:12:38 10° NNW
Okean 3 3.5 22:03:43 10° NNW 22:08:02 79° W 22:08:38 64° SSW
Cosmos 841 Rocket 4.1 22:03:08 10° NNW 22:08:11 49° WSW 22:10:01 34° SSW
Cosmos 2333 4.3 22:04:45 10° NNW 22:10:32 67° ENE 22:12:06 47° ESE
COSMOS 2487 3.9 22:12:29 28° NE 22:12:29 28° NE 22:14:19 10° NNE
Cosmos 1666 2.9 22:12:27 62° NE 22:12:27 62° NE 22:15:42 10° NNE
Cosmos 2360 Rocket 2.3 22:06:16 10° NNW 22:11:56 71° WSW 22:13:33 47° S
Cosmos 2237 4.5 22:10:43 10° NW 22:16:20 60° WSW 22:17:58 43° SSW
Resurs 01 Rocket 4.3 22:14:51 10° WSW 22:16:30 12° W 22:18:11 10° WNW
CARTOSAT-1 4.4 22:17:38 36° SW 22:18:37 42° W 22:22:45 10° NNW
Iridium 4 Rocket 3.1 22:18:30 62° SW 22:19:00 69° W 22:23:09 10° N
USA 234 3.2 22:16:20 40° ESE 22:19:00 89° NE 22:25:35 10° NW
Cosmos 1864 Rocket 4.4 22:17:15 46° SSE 22:19:11 74° E 22:25:27 10° NNE
Lacrosse 5 3.7 22:16:52 10° W 22:20:11 18° WSW 22:21:01 17° SW
ATLAS 3B R/B 2.5 22:14:29 10° SW 22:21:06 88° NW 22:27:48 10° NE
Cosmos 1378 4.4 22:18:35 10° N 22:21:16 33° NE 22:21:16 33° NE
MOS 1-B Rocket 4.2 22:17:29 10° NNE 22:22:51 45° E 22:23:10 44° ESE
Cosmos 2297 Rocket 4.4 22:32:12 11° ENE 22:32:12 11° ENE 22:32:37 10° ENE
Cosmos 1743 4.2 22:35:21 29° NE 22:35:21 29° NE 22:37:36 10° NNE
Cosmos 2233 Rocket 4.0 22:34:08 53° SE 22:35:19 63° E 22:41:34 10° NNE
Thor Agena Rocket 4.5 22:31:06 10° NNE 22:35:03 33° E 22:35:03 33° E
Cosmos 2061 Rocket 4.1 22:35:41 38° SSW 22:38:10 72° W 22:44:22 10° N
COSMOS 2428 2.8 22:33:05 10° NNW 22:38:50 68° ENE 22:39:48 57° ESE
Cosmos 44 Rocket 3.3 22:37:38 10° NW 22:42:39 78° NE 22:42:56 74° E
Cosmos 2237 Rocket 3.3 22:37:55 10° NNW 22:43:02 33° NE 22:44:34 29° E
Cosmos 1271 Rocket 3.6 22:41:43 10° N 22:44:31 44° NNE 22:44:31 44° NNE
CENTAUR R/B 4.1 22:44:10 10° W 22:50:01 37° NNW 22:56:53 10° NE
NOSS 0 Rocket 4.3 22:44:12 10° NNW 22:50:22 56° NE 22:51:50 45° E
Cosmos 1674 Rocket 3.7 22:47:03 10° NNW 22:51:00 69° NW 22:51:00 69° NW
Cosmos 2333 Rocket 2.1 22:50:59 10° NNW 22:56:46 76° WSW 22:57:19 69° SSW
SPOT 5 4.4 22:56:53 21° WSW 22:57:31 21° W 23:00:56 10° NW
Cosmos 1503 Rocket 4.2 22:58:15 59° E 22:58:15 59° E 23:03:04 10° NNE
Geosat 4.2 22:58:12 59° ENE 22:58:33 61° NE 23:03:31 10° NNW
Cosmos 1066 Rocket 4.5 22:57:11 10° NNW 23:02:41 55° W 23:03:25 51° SW
Cosmos 1486 Rocket 4.0 23:02:24 66° WSW 23:02:57 73° WNW 23:08:11 10° NNE
Cosmos 1733 Rocket 3.9 23:06:45 43° W 23:06:54 43° WNW 23:11:09 10° N
Meteor 2-11 Rocket 4.3 23:06:27 70° SSE 23:07:03 77° E 23:13:11 10° NNE
Lacrosse 4 Rocket 2.9 23:13:52 31° WNW 23:14:47 35° NW 23:18:39 10° NNE
ALOS 2 3.3 23:17:00 48° NE 23:17:00 48° NE 23:20:35 10° N
Cosmos 773 Rocket 4.3 23:12:37 10° NNW 23:17:38 56° ENE 23:17:38 56° ENE
Cosmos 968 Rocket 3.7 23:17:23 61° W 23:17:47 64° WNW 23:22:55 10° NNE
Cosmos 2227 Rocket 3.7 23:21:59 24° E 23:21:59 24° E 23:25:15 10° NE
SL-4 R/B 4.1 23:17:21 10° WNW 23:18:32 19° WNW 23:18:32 19° WNW
Cosmos 2219 Rocket 2.6 23:20:38 10° NW 23:26:05 50° WSW 23:26:05 50° WSW
USA 267 3.8 23:19:45 10° NE 23:26:08 57° NNW 23:32:30 10° W
Cosmos 1782 Rocket 4.4 23:35:17 46° NNE 23:35:17 46° NNE 23:38:23 10° N
Cosmos 1538 Rocket 4.4 23:30:33 10° NNW 23:35:35 51° ENE 23:35:35 51° ENE
Spot 4 4.5 23:37:26 48° WNW 23:37:26 48° WNW 23:41:36 10° NNW
Cosmos 1607 4.4 23:39:21 10° NNW 23:45:44 57° NE 23:47:26 45° E
Terra 4.3 23:45:43 11° W 23:46:17 12° W 23:47:56 10° WNW
